Location: Phoenix
(33.4480°N, 112.0730°W)
Time: 06:38:48
(UTC-07:00)

ISS - All Passes

Search period start: 01 September 2014 00:00
Search period end: 11 September 2014 00:00
Orbit: 414 x 419 km, 51.6° (Epoch: 01 September)

Date Brightness Start Highest point End Pass type
(mag) Time Alt. Az. Time Alt. Az. Time Alt. Az.
01 Sep - 09:05:49 10° SW 09:09:07 82° SE 09:12:27 10° NE daylight
01 Sep - 10:44:53 10° NW 10:46:14 12° NNW 10:47:36 10° N daylight
01 Sep - 15:38:37 10° N 15:40:52 17° NNE 15:43:07 10° ENE daylight
01 Sep - 17:14:34 10° WNW 17:17:46 45° SW 17:20:57 10° SSE daylight
02 Sep - 08:17:32 10° SSW 08:20:39 39° SE 08:23:46 10° ENE daylight
02 Sep - 09:55:06 10° W 09:57:29 18° NNW 09:59:53 10° NNE daylight
02 Sep - 14:51:05 10° N 14:52:06 11° NNE 14:53:07 10° NE daylight
02 Sep - 16:25:56 10° NW 16:29:16 86° NE 16:32:35 10° SE daylight
03 Sep - 07:29:43 10° S 07:32:13 20° SE 07:34:43 10° E daylight
03 Sep - 09:05:50 10° W 09:08:47 29° NW 09:11:45 10° NNE daylight
03 Sep - 15:37:29 10° NNW 15:40:41 43° NE 15:43:52 10° ESE daylight
03 Sep - 17:15:27 10° W 17:17:06 13° SW 17:18:45 10° SSW daylight
04 Sep - 06:43:18 10° SE 06:43:49 10° SE 06:44:19 10° ESE daylight
04 Sep - 08:16:53 10° WSW 08:20:08 54° NW 08:23:25 10° NE daylight
04 Sep - 14:49:12 10° NNW 14:52:00 24° NE 14:54:48 10° E daylight
04 Sep - 16:25:52 10° WNW 16:28:40 25° SW 16:31:27 10° S daylight
05 Sep - 07:28:14 10° SW 07:31:32 73° SE 07:34:51 10° NE daylight
05 Sep - 09:07:01 10° WNW 09:08:36 13° NNW 09:10:11 10° N daylight
05 Sep - 14:01:07 10° N 14:03:13 16° NNE 14:05:19 10° ENE daylight
05 Sep - 15:36:55 10° WNW 15:40:09 51° SW 15:43:22 10° SSE daylight
06 Sep - 06:39:56 10° SSW 06:42:59 34° SE 06:46:02 10° ENE daylight
06 Sep - 08:17:16 10° W 08:19:46 20° NW 08:22:17 10° NNE daylight
06 Sep - 13:13:46 10° NNE 13:14:21 10° NNE 13:14:55 10° NE daylight
06 Sep - 14:48:14 10° NW 14:51:33 77° NE 14:54:52 10° SE daylight
07 Sep - 05:52:08 10° S 05:54:28 18° SE 05:56:48 10° E daylight
07 Sep - 07:27:58 10° WSW 07:31:00 32° NW 07:34:02 10° NNE daylight
07 Sep - 13:59:43 10° NNW 14:02:52 38° NE 14:06:00 10° ESE daylight
07 Sep - 15:37:23 10° W 15:39:19 15° SW 15:41:15 10° SSW daylight
08 Sep - 06:38:59 10° SW 06:42:16 62° NW 06:45:34 10° NE daylight
08 Sep - 13:11:23 10° NNW 13:14:05 23° NE 13:16:47 10° E daylight
08 Sep - 14:47:53 10° WNW 14:50:47 28° SW 14:53:40 10° S daylight
09 Sep - 05:50:18 10° SW 05:53:35 64° SE 05:56:53 10° NE daylight
09 Sep - 07:28:48 10° WNW 07:30:35 14° NNW 07:32:23 10° N daylight
09 Sep - 12:23:16 10° N 12:25:12 14° NNE 12:27:07 10° ENE daylight
09 Sep - 13:58:54 10° NW 14:02:10 58° SW 14:05:26 10° SSE daylight
10 Sep - 05:01:59 10° SSW 05:04:57 30° SE 05:07:55 10° ENE visible
10 Sep - 06:39:04 10° W 06:41:41 21° NW 06:44:19 10° NNE daylight
10 Sep - 13:10:10 10° NW 13:13:28 67° NE 13:16:46 10° SE daylight
